Date String (YYYY-MM-DD hh:mm:ss) UTC,Instrument flags,Ambient pressure (hPa),Sample flow (lpm),Bypass flow (lpm),Sample temperature (°C),Ambient temperature (°C),ASC tube jacket temperature (°C),LED temperature (°C),Box temperature (°C),Sample RH (%),Span deviation,Mass concentration (μg/m³),Mass concentration (μg/m³),Mass concentration (μg/m³)
DateTimeUTC,F1_M11,P_M11,Q1_M11,Q2_M11,T1_M11,T2_M11,T3_M11,T4_M11,T5_M11,U1_M11,ZSPAN_M11,X0_M11,X2_M11,X1_M11
2022-02-13 03:00:00,,0832.1,4.99,0.00,22.8,22.0,00.0,32.0,24.6,10.1,0000.0,0012.87,0005.58,0004.72
2022-02-13 03:01:00,,0832.1,5.01,0.00,22.8,22.0,00.0,32.0,24.6,10.2,0000.0,0012.81,0005.61,0004.75
2022-02-13 03:02:00,,0832.1,4.99,0.00,22.8,22.0,00.0,31.9,24.6,10.2,0000.0,0012.14,0005.66,0004.79
2022-02-13 03:03:00,,0832.1,5.01,0.00,22.8,22.0,00.0,31.9,24.5,10.2,0000.0,0012.46,0005.65,0004.82
2022-02-13 03:04:00,,0832.1,4.99,0.00,22.8,22.0,00.0,31.9,24.6,10.2,0000.0,0012.00,0005.63,0004.84
2022-02-13 03:05:00,,0832.1,5.00,0.00,22.8,22.0,00.0,31.9,24.5,10.2,0000.0,0012.43,0005.74,0004.91
2022-02-13 03:06:00,,0832.1,5.00,0.00,22.8,22.0,00.0,31.9,24.5,10.3,0000.0,0012.56,0005.86,0004.99
2022-02-13 03:07:00,,0832.1,4.99,0.00,22.8,22.0,00.0,31.9,24.5,10.3,0000.0,0013.16,0005.95,0005.07
2022-02-13 03:08:00,,0832.1,5.00,0.00,22.8,22.0,00.0,31.9,24.5,10.2,0000.0,0013.28,0005.98,0005.12
2022-02-13 03:09:00,,0832.2,4.99,0.00,22.8,22.0,00.0,31.8,24.5,10.2,0000.0,0013.25,0005.99,0005.16
2022-02-13 03:10:00,,0832.2,5.02,0.00,22.7,22.0,00.0,31.8,24.5,10.2,0000.0,0013.26,0006.04,0005.21
2022-02-13 03:11:00,,0832.2,4.99,0.00,22.7,22.0,00.0,31.8,24.5,10.2,0000.0,0013.40,0006.09,0005.24
2022-02-13 03:12:00,,0832.2,4.99,0.00,22.7,22.0,00.0,31.8,24.5,10.3,0000.0,0013.97,0006.17,0005.28
2022-02-13 03:13:00,,0832.2,5.00,0.00,22.7,21.9,00.0,31.8,24.5,10.3,0000.0,0014.59,0006.23,0005.33
2022-02-13 03:14:00,,0832.3,5.01,0.00,22.7,21.9,00.0,31.8,24.4,10.3,0000.0,0014.66,0006.33,0005.39
2022-02-13 03:15:00,,0832.2,5.01,0.00,22.7,21.9,00.0,31.8,24.4,10.3,0000.0,0014.76,0006.41,0005.43
2022-02-13 03:16:00,,0832.3,4.98,0.00,22.7,21.9,00.0,31.8,24.4,10.3,0000.0,0014.53,0006.41,0005.46
2022-02-13 03:17:00,,0832.3,5.02,0.00,22.7,21.9,00.0,31.8,24.4,10.3,0000.0,0014.57,0006.45,0005.49
2022-02-13 03:18:00,,0832.3,4.99,0.00,22.7,21.9,00.0,31.7,24.4,10.4,0000.0,0014.95,0006.47,0005.53
2022-02-13 03:19:00,,0832.3,5.01,0.00,22.6,21.8,00.0,31.7,24.4,10.4,0000.0,0014.79,0006.57,0005.59
2022-02-13 03:20:00,,0832.3,4.99,0.00,22.6,21.8,00.0,31.7,24.4,10.4,0000.0,0015.03,0006.68,0005.67
2022-02-13 03:21:00,,0832.3,5.00,0.00,22.6,21.8,00.0,31.7,24.4,10.4,0000.0,0015.21,0006.76,0005.74
2022-02-13 03:22:00,,0832.3,5.02,0.00,22.6,21.8,00.0,31.7,24.3,10.4,0000.0,0015.22,0006.79,0005.79
2022-02-13 03:23:00,,0832.4,4.99,0.00,22.6,21.8,00.0,31.7,24.3,10.4,0000.0,0014.90,0006.80,0005.81
2022-02-13 03:24:00,,0832.4,5.01,0.00,22.6,21.8,00.0,31.7,24.3,10.4,0000.0,0014.81,0006.81,0005.82
2022-02-13 03:25:00,,0832.4,4.99,0.00,22.6,21.8,00.0,31.7,24.3,10.4,0000.0,0014.37,0006.74,0005.82
2022-02-13 03:26:00,,0832.4,5.01,0.00,22.6,21.8,00.0,31.6,24.3,10.4,0000.0,0014.39,0006.70,0005.81
2022-02-13 03:27:00,,0832.4,4.99,0.00,22.6,21.8,00.0,31.6,24.3,10.4,0000.0,0014.46,0006.67,0005.77
2022-02-13 03:28:00,,0832.4,4.99,0.00,22.5,21.8,00.0,31.6,24.2,10.3,0000.0,0014.21,0006.59,0005.71
2022-02-13 03:29:00,,0832.4,5.01,0.00,22.5,21.8,00.0,31.6,24.2,10.2,0000.0,0013.73,0006.51,0005.62
2022-02-13 03:30:00,,0832.4,5.01,0.00,22.5,21.8,00.0,31.6,24.2,10.2,0000.0,0013.16,0006.29,0005.44
2022-02-13 03:31:00,,0832.4,4.98,0.00,22.5,21.7,00.0,31.6,24.2,10.1,0000.0,0012.76,0006.08,0005.26
2022-02-13 03:32:00,,0832.5,5.01,0.00,22.5,21.7,00.0,31.6,24.1,10.1,0000.0,0012.36,0005.85,0005.07
2022-02-13 03:33:00,,0832.4,5.00,0.00,22.5,21.7,00.0,31.6,24.2,10.1,0000.0,0012.20,0005.70,0004.89
2022-02-13 03:34:00,,0832.4,5.00,0.00,22.4,21.6,00.0,31.6,24.1,10.1,0000.0,0011.86,0005.50,0004.71
2022-02-13 03:35:00,,0832.4,4.99,0.00,22.4,21.6,00.0,31.5,24.1,10.1,0000.0,0011.19,0005.33,0004.55
2022-02-13 03:36:00,,0832.5,5.01,0.00,22.4,21.5,00.0,31.5,24.0,10.2,0000.0,0010.98,0005.25,0004.45
2022-02-13 03:37:00,,0832.5,4.98,0.00,22.3,21.4,00.0,31.5,24.0,10.2,0000.0,0010.76,0005.24,0004.42
2022-02-13 03:38:00,,0832.5,5.01,0.00,22.3,21.4,00.0,31.5,24.0,10.2,0000.0,0010.80,0005.21,0004.42
2022-02-13 03:39:00,,0832.5,5.01,0.00,22.3,21.4,00.0,31.4,23.9,10.2,0000.0,0011.21,0005.23,0004.44
2022-02-13 03:40:00,,0832.5,4.99,0.00,22.3,21.4,00.0,31.4,23.9,10.2,0000.0,0010.98,0005.22,0004.47
2022-02-13 03:41:00,,0832.5,5.00,0.00,22.2,21.4,00.0,31.4,23.9,10.3,0000.0,0011.12,0005.27,0004.50
2022-02-13 03:42:00,,0832.5,5.00,0.00,22.2,21.4,00.0,31.4,23.9,10.3,0000.0,0011.31,0005.33,0004.56
2022-02-13 03:43:00,,0832.5,5.01,0.00,22.2,21.4,00.0,31.4,23.9,10.3,0000.0,0012.09,0005.42,0004.62
2022-02-13 03:44:00,,0832.5,5.01,0.00,22.2,21.4,00.0,31.4,23.9,10.3,0000.0,0012.77,0005.54,0004.71
2022-02-13 03:45:00,,0832.5,4.99,0.00,22.2,21.4,00.0,31.3,23.9,10.3,0000.0,0013.03,0005.68,0004.86
2022-02-13 03:46:00,,0832.6,5.01,0.00,22.2,21.4,00.0,31.3,23.9,10.3,0000.0,0013.48,0005.81,0004.96
2022-02-13 03:47:00,,0832.6,4.99,0.00,22.2,21.4,00.0,31.3,23.8,10.3,0000.0,0014.25,0005.89,0005.03
2022-02-13 03:48:00,,0832.6,5.00,0.00,22.1,21.4,00.0,31.3,23.8,10.3,0000.0,0014.53,0005.91,0005.06
2022-02-13 03:49:00,,0832.6,5.00,0.00,22.1,21.4,00.0,31.3,23.8,10.3,0000.0,0014.81,0005.99,0005.10
2022-02-13 03:50:00,,0832.7,5.00,0.00,22.1,21.3,00.0,31.3,23.8,10.3,0000.0,0015.98,0006.06,0005.13
2022-02-13 03:51:00,,0832.6,5.00,0.00,22.1,21.3,00.0,31.2,23.8,10.3,0000.0,0016.32,0006.12,0005.19
2022-02-13 03:52:00,,0832.6,5.01,0.00,22.1,21.3,00.0,31.2,23.8,10.3,0000.0,0017.84,0006.26,0005.31
2022-02-13 03:53:00,,0832.6,4.99,0.00,22.1,21.3,00.0,31.2,23.8,10.3,0000.0,0018.02,0006.35,0005.41
2022-02-13 03:54:00,,0832.6,5.00,0.00,22.1,21.3,00.0,31.2,23.8,10.3,0000.0,0017.46,0006.44,0005.50
2022-02-13 03:55:00,,0832.7,5.00,0.00,22.1,21.3,00.0,31.2,23.8,10.3,0000.0,0017.66,0006.48,0005.57
2022-02-13 03:56:00,,0832.6,4.99,0.00,22.1,21.3,00.0,31.2,23.8,10.4,0000.0,0017.80,0006.49,0005.58
2022-02-13 03:57:00,,0832.7,5.01,0.00,22.1,21.3,00.0,31.2,23.8,10.4,0000.0,0017.48,0006.49,0005.60
2022-02-13 03:58:00,,0832.7,5.00,0.00,22.0,21.3,00.0,31.2,23.8,10.4,0000.0,0016.76,0006.48,0005.59
2022-02-13 03:59:00,,0832.7,5.01,0.00,22.0,21.3,00.0,31.2,23.7,10.4,0000.0,0017.16,0006.43,0005.56
